SES-7 (PROTOSTAR 2)

Last updated on Tue Sep 22 2026 00:03:11 GMT+0000 (Coordinated Universal Time)

1 34941U 09027A 26264.58180442 -.00000348 00000+0 00000+0 0 9995 2 34941 0.0599 77.4640 0000973 165.6772 75.0302 1.00269762 63590
UTC large
Height (km)
Speed (km/s)
/
Latitude / Longitude
Inclination (degrees)
Orbital Period (minutes)
Azimuth
Elevation
Range (km)
Doppler Factor

Next 0 passes for location: London (51.5072 / 0.1276)

No passes found over London.
SES-7 (PROTOSTAR 2)